This is the latest recevied weather packets stored in our database for station/object DL1BWU. If no packets are shown the sender has not sent any weather packets the latest 10 day(s).
| Time | Temp. | Humidity | Pressure | Rain* | Wind** | Luminosity | Snow |
|---|---|---|---|---|---|---|---|
| 1777730717 | 26.67° C | 31% | 1018.4 hPa | 0 mm | - | - | - |
| 1777730117 | 26.67° C | 31% | 1018.6 hPa | 0 mm | - | - | - |
| 1777729517 | 26.67° C | 31% | 1018.7 hPa | 0 mm | - | - | - |
| 1777728917 | 26.67° C | 31% | 1018.9 hPa | 0 mm | - | - | - |
| 1777728317 | 27.22° C | 32% | 1018.9 hPa | 0 mm | - | - | - |
| 1777727717 | 26.67° C | 31% | 1019.1 hPa | 0 mm | - | - | - |
| 1777727118 | 26.67° C | 31% | 1019.3 hPa | 0 mm | - | - | - |
| 1777726517 | 26.67° C | 32% | 1019.6 hPa | 0 mm | - | - | - |
| 1777725917 | 26.67° C | 32% | 1019.6 hPa | 0 mm | - | - | - |
| 1777725317 | 26.67° C | 32% | 1019.9 hPa | 0 mm | - | - | - |
| 1777724717 | 26.67° C | 32% | 1020 hPa | 0 mm | - | - | - |
| 1777724117 | 26.11° C | 33% | 1020 hPa | 0 mm | - | - | - |
| 1777723517 | 26.11° C | 33% | 1020.1 hPa | 0 mm | - | - | - |
| 1777722917 | 26.11° C | 34% | 1020.3 hPa | 0 mm | - | - | - |
| 1777722317 | 25.56° C | 34% | 1020.6 hPa | 0 mm | - | - | - |
| 1777721717 | 25.56° C | 34% | 1020.6 hPa | 0 mm | - | - | - |
| 1777721117 | 25.56° C | 35% | 1020.8 hPa | 0 mm | - | - | - |
| 1777720517 | 25° C | 36% | 1021 hPa | 0 mm | - | - | - |
| 1777719917 | 25° C | 36% | 1021.1 hPa | 0 mm | - | - | - |
| 1777719317 | 25° C | 36% | 1021.2 hPa | 0 mm | - | - | - |
| 1777718717 | 24.44° C | 36% | 1021.3 hPa | 0 mm | - | - | - |
| 1777718117 | 24.44° C | 37% | 1021.5 hPa | 0 mm | - | - | - |
| 1777717517 | 24.44° C | 37% | 1021.6 hPa | 0 mm | - | - | - |
| 1777716917 | 23.89° C | 38% | 1021.7 hPa | 0 mm | - | - | - |
| 1777716317 | 23.89° C | 38% | 1021.7 hPa | 0 mm | - | - | - |
* Rain latest hour (hover to see other rain measurements)
** Current wind speed in m/s (hover to see current wind gust speed)